| time (UTC) | temp F | wind direction | speed knots | gust knots | rain 1hr in | rain 24hr in | rain mn in | humidity % | barometer mb |
| 20260906021839 | 52 | 240 | 5.2 | 0.0 | 0.00 | 0.00 | 0.00 | 94 | 1020.0 |
| 20260906020334 | 52 | 240 | 5.2 | 0.0 | 0.00 | 0.00 | 0.00 | 94 | 1020.0 |
| 20260906014834 | 54 | 240 | 4.3 | 0.0 | 0.00 | 0.00 | 0.00 | 88 | 1020.0 |
| 20260906013451 | 54 | 240 | 4.3 | 0.0 | 0.00 | 0.00 | 0.00 | 88 | 1020.0 |
| 20260906011832 | 54 | 220 | 4.3 | 0.0 | 0.00 | 0.00 | 0.00 | 94 | 1019.0 |
| 20260906010332 | 54 | 220 | 4.3 | 0.0 | 0.00 | 0.00 | 0.00 | 94 | 1019.0 |
| 20260906004951 | 55 | 230 | 5.2 | 0.0 | 0.00 | 0.00 | 0.00 | 88 | 1019.0 |
| 20260906003501 | 55 | 230 | 5.2 | 0.0 | 0.00 | 0.00 | 0.00 | 88 | 1019.0 |
| 20260906001951 | 55 | 210 | 2.6 | 0.0 | 0.00 | 0.00 | 0.00 | 88 | 1019.0 |
| 20260906000440 | 55 | 210 | 2.6 | 0.0 | 0.00 | 0.00 | 0.00 | 88 | 1019.0 |
| 20260905233332 | 54 | 220 | 4.3 | 0.0 | 0.00 | 0.00 | 0.00 | 94 | 1019.0 |
| 20260905231951 | 55 | 200 | 1.7 | 0.0 | 0.00 | 0.00 | 0.00 | 88 | 1019.0 |
| 20260905230404 | 55 | 200 | 1.7 | 0.0 | 0.00 | 0.00 | 0.00 | 88 | 1019.0 |
| 20260905224951 | 55 | 190 | 5.2 | 0.0 | 0.00 | 0.00 | 0.00 | 88 | 1019.0 |
| 20260905223346 | 55 | 190 | 5.2 | 0.0 | 0.00 | 0.00 | 0.00 | 88 | 1019.0 |
| 20260905221936 | 57 | 200 | 5.2 | 0.0 | 0.00 | 0.00 | 0.00 | 82 | 1019.0 |
| 20260905220451 | 57 | 200 | 5.2 | 0.0 | 0.00 | 0.00 | 0.00 | 82 | 1019.0 |
| 20260905214950 | 55 | 200 | 5.2 | 0.0 | 0.00 | 0.00 | 0.00 | 88 | 1019.0 |
| 20260905213333 | 55 | 200 | 5.2 | 0.0 | 0.00 | 0.00 | 0.00 | 88 | 1019.0 |
| 20260905211832 | 57 | 200 | 5.2 | 0.0 | 0.00 | 0.00 | 0.00 | 82 | 1018.0 |
| 20260905210332 | 57 | 200 | 5.2 | 0.0 | 0.00 | 0.00 | 0.00 | 82 | 1018.0 |
| 20260905204843 | 57 | 200 | 5.2 | 0.0 | 0.00 | 0.00 | 0.00 | 82 | 1018.0 |
| 20260905203332 | 57 | 200 | 5.2 | 0.0 | 0.00 | 0.00 | 0.00 | 82 | 1018.0 |
| 20260905201832 | 59 | 220 | 4.3 | 0.0 | 0.00 | 0.00 | 0.00 | 77 | 1018.0 |
| 20260905200451 | 59 | 220 | 4.3 | 0.0 | 0.00 | 0.00 | 0.00 | 77 | 1018.0 |
| 20260905194942 | 59 | 240 | 5.2 | 0.0 | 0.00 | 0.00 | 0.00 | 77 | 1018.0 |
| 20260905193333 | 59 | 240 | 5.2 | 0.0 | 0.00 | 0.00 | 0.00 | 77 | 1018.0 |
| 20260905191901 | 59 | 240 | 5.2 | 0.0 | 0.00 | 0.00 | 0.00 | 77 | 1018.0 |
| 20260905190333 | 59 | 240 | 5.2 | 0.0 | 0.00 | 0.00 | 0.00 | 77 | 1018.0 |
| 20260905184830 | 63 | 0 | 0.0 | 0.0 | 0.00 | 0.00 | 0.00 | 73 | 1017.0 |
| 20260905183337 | 63 | 0 | 0.0 | 0.0 | 0.00 | 0.00 | 0.00 | 73 | 1017.0 |
| 20260905181829 | 64 | 110 | 1.7 | 0.0 | 0.00 | 0.00 | 0.00 | 68 | 1017.0 |
| 20260905180329 | 64 | 110 | 1.7 | 0.0 | 0.00 | 0.00 | 0.00 | 68 | 1017.0 |
| 20260905174829 | 64 | 90 | 2.6 | 0.0 | 0.00 | 0.00 | 0.00 | 68 | 1017.0 |
| 20260905173332 | 64 | 90 | 2.6 | 0.0 | 0.00 | 0.00 | 0.00 | 68 | 1017.0 |
| 20260905171840 | 66 | 60 | 2.6 | 0.0 | 0.00 | 0.00 | 0.00 | 64 | 1017.0 |
| 20260905170333 | 66 | 60 | 2.6 | 0.0 | 0.00 | 0.00 | 0.00 | 64 | 1017.0 |
| 20260905164832 | 70 | 40 | 4.3 | 0.0 | 0.00 | 0.00 | 0.00 | 57 | 1017.0 |
| 20260905163334 | 70 | 40 | 4.3 | 0.0 | 0.00 | 0.00 | 0.00 | 57 | 1017.0 |
| 20260905161830 | 70 | 50 | 6.1 | 0.0 | 0.00 | 0.00 | 0.00 | 57 | 1016.0 |
| 20260905160333 | 70 | 50 | 6.1 | 0.0 | 0.00 | 0.00 | 0.00 | 57 | 1016.0 |
| 20260905154846 | 70 | 20 | 7.8 | 0.0 | 0.00 | 0.00 | 0.00 | 57 | 1016.0 |
| 20260905153332 | 70 | 20 | 7.8 | 0.0 | 0.00 | 0.00 | 0.00 | 57 | 1016.0 |
| 20260905151833 | 70 | 360 | 9.6 | 0.0 | 0.00 | 0.00 | 0.00 | 60 | 1017.0 |
| 20260905150333 | 70 | 360 | 9.6 | 0.0 | 0.00 | 0.00 | 0.00 | 60 | 1017.0 |
| 20260905144829 | 70 | 350 | 11.3 | 0.0 | 0.00 | 0.00 | 0.00 | 64 | 1017.0 |
| 20260905143332 | 70 | 350 | 11.3 | 0.0 | 0.00 | 0.00 | 0.00 | 64 | 1017.0 |
| 20260905141830 | 73 | 10 | 6.1 | 0.0 | 0.00 | 0.00 | 0.00 | 50 | 1016.0 |
| 20260905140329 | 73 | 10 | 6.1 | 0.0 | 0.00 | 0.00 | 0.00 | 50 | 1016.0 |
| 20260905134948 | 73 | 50 | 6.1 | 0.0 | 0.00 | 0.00 | 0.00 | 50 | 1016.0 |
| 20260905133333 | 73 | 50 | 6.1 | 0.0 | 0.00 | 0.00 | 0.00 | 50 | 1016.0 |
| 20260905131835 | 75 | 110 | 4.3 | 0.0 | 0.00 | 0.00 | 0.00 | 47 | 1015.0 |
| 20260905130354 | 75 | 110 | 4.3 | 0.0 | 0.00 | 0.00 | 0.00 | 47 | 1015.0 |
| 20260905124830 | 75 | 40 | 4.3 | 0.0 | 0.00 | 0.00 | 0.00 | 47 | 1016.0 |
| 20260905123333 | 75 | 40 | 4.3 | 0.0 | 0.00 | 0.00 | 0.00 | 47 | 1016.0 |
| 20260905121900 | 77 | 10 | 7.8 | 0.0 | 0.00 | 0.00 | 0.00 | 44 | 1016.0 |
| 20260905120333 | 77 | 10 | 7.8 | 0.0 | 0.00 | 0.00 | 0.00 | 44 | 1016.0 |
| 20260905114833 | 75 | 350 | 12.2 | 0.0 | 0.00 | 0.00 | 0.00 | 47 | 1017.0 |
| 20260905113332 | 75 | 350 | 12.2 | 0.0 | 0.00 | 0.00 | 0.00 | 47 | 1017.0 |
| 20260905111851 | 75 | 350 | 8.7 | 0.0 | 0.00 | 0.00 | 0.00 | 50 | 1017.0 |
| 20260905110332 | 75 | 350 | 8.7 | 0.0 | 0.00 | 0.00 | 0.00 | 50 | 1017.0 |
| 20260905104833 | 75 | 330 | 9.6 | 0.0 | 0.00 | 0.00 | 0.00 | 50 | 1016.0 |
| 20260905103332 | 75 | 330 | 9.6 | 0.0 | 0.00 | 0.00 | 0.00 | 50 | 1016.0 |
| 20260905101832 | 75 | 320 | 11.3 | 0.0 | 0.00 | 0.00 | 0.00 | 54 | 1016.0 |
| 20260905100333 | 75 | 320 | 11.3 | 0.0 | 0.00 | 0.00 | 0.00 | 54 | 1016.0 |
| 20260905094951 | 77 | 310 | 13.9 | 0.0 | 0.00 | 0.00 | 0.00 | 44 | 1016.0 |
| 20260905093332 | 77 | 310 | 13.9 | 0.0 | 0.00 | 0.00 | 0.00 | 44 | 1016.0 |
| 20260905091832 | 81 | 320 | 13.9 | 0.0 | 0.00 | 0.00 | 0.00 | 39 | 1015.0 |
| 20260905090332 | 81 | 320 | 13.9 | 0.0 | 0.00 | 0.00 | 0.00 | 39 | 1015.0 |
| 20260905084832 | 86 | 280 | 11.3 | 0.0 | 0.00 | 0.00 | 0.00 | 35 | 1014.0 |
| 20260905083332 | 86 | 280 | 11.3 | 0.0 | 0.00 | 0.00 | 0.00 | 35 | 1014.0 |
| 20260905081832 | 84 | 280 | 13.9 | 0.0 | 0.00 | 0.00 | 0.00 | 35 | 1014.0 |
| 20260905080333 | 84 | 280 | 13.9 | 0.0 | 0.00 | 0.00 | 0.00 | 35 | 1014.0 |
| 20260905074832 | 82 | 270 | 13.0 | 0.0 | 0.00 | 0.00 | 0.00 | 37 | 1014.0 |
| 20260905073341 | 82 | 270 | 13.0 | 0.0 | 0.00 | 0.00 | 0.00 | 37 | 1014.0 |
| 20260905071833 | 81 | 270 | 12.2 | 0.0 | 0.00 | 0.00 | 0.00 | 39 | 1014.0 |
| 20260905070332 | 81 | 270 | 12.2 | 0.0 | 0.00 | 0.00 | 0.00 | 39 | 1014.0 |
| 20260905064833 | 81 | 230 | 6.1 | 0.0 | 0.00 | 0.00 | 0.00 | 39 | 1013.0 |
| 20260905063333 | 81 | 230 | 6.1 | 0.0 | 0.00 | 0.00 | 0.00 | 39 | 1013.0 |
| 20260905061833 | 77 | 200 | 5.2 | 0.0 | 0.00 | 0.00 | 0.00 | 44 | 1014.0 |
| 20260905060333 | 77 | 200 | 5.2 | 0.0 | 0.00 | 0.00 | 0.00 | 44 | 1014.0 |
| 20260905054833 | 73 | 230 | 2.6 | 0.0 | 0.00 | 0.00 | 0.00 | 50 | 1014.0 |
| 20260905053333 | 73 | 230 | 2.6 | 0.0 | 0.00 | 0.00 | 0.00 | 50 | 1014.0 |
| 20260905051832 | 70 | 180 | 6.1 | 0.0 | 0.00 | 0.00 | 0.00 | 57 | 1014.0 |
| 20260905050333 | 70 | 180 | 6.1 | 0.0 | 0.00 | 0.00 | 0.00 | 57 | 1014.0 |
| 20260905044833 | 68 | 0.9 | 0.0 | 0.00 | 0.00 | 0.00 | 60 | 1014.0 | |
| 20260905043332 | 68 | 0.9 | 0.0 | 0.00 | 0.00 | 0.00 | 60 | 1014.0 | |
| 20260905041832 | 66 | 200 | 7.0 | 0.0 | 0.00 | 0.00 | 0.00 | 64 | 1013.0 |
| 20260905040332 | 66 | 200 | 7.0 | 0.0 | 0.00 | 0.00 | 0.00 | 64 | 1013.0 |
| 20260905034833 | 64 | 190 | 7.0 | 0.0 | 0.00 | 0.00 | 0.00 | 64 | 1013.0 |
| 20260905033332 | 64 | 190 | 7.0 | 0.0 | 0.00 | 0.00 | 0.00 | 64 | 1013.0 |
| 20260905031833 | 64 | 190 | 6.1 | 0.0 | 0.00 | 0.00 | 0.00 | 64 | 1013.0 |
| 20260905030332 | 64 | 190 | 6.1 | 0.0 | 0.00 | 0.00 | 0.00 | 64 | 1013.0 |
| 20260905024845 | 66 | 200 | 6.1 | 0.0 | 0.00 | 0.00 | 0.00 | 64 | 1013.0 |
| 20260905023333 | 66 | 200 | 6.1 | 0.0 | 0.00 | 0.00 | 0.00 | 64 | 1013.0 |